User: anonymous   Login
Location: Muenchen
(48.1800°N, 11.5800°E)
Time: 11:46:02
(UTC+02:00)
Language:

Sich 1 Rocket - Orbit

View from above orbital plane
View from above orbital plane
View from above satellite
View from above satellite

Ground track
Ground track

The orbit data is extracted from the following two-line orbital elements,

1 23659U 95046C   17114.80602944 +.00000173 +00000-0 +20460-4 0  9993
2 23659 082.5318 354.9861 0026902 050.8931 354.7787 14.78237471166340
Epoch (UTC): 24 April 2017 19:20:40
Eccentricity: 0.0026902
inclination: 82.5318°
perigee height: 616 km
apogee height: 654 km
right ascension of ascending node: 354.9861°
argument of perigee: 50.8931°
revolutions per day: 14.78237471
mean anomaly at epoch: 354.7787°
orbit number at epoch: 16634

The dashed part of the orbit path shows where the satellite is in the earth's shadow,  

DLR